H1 CPF 2 NER 2023 10 23 9 296 01 glonass143 H2 2007501 9143 46805 2023 10 23 0 0 0 2023 10 26 23 45 0 900 1 1 0 0 0 1 H9 10 0 60240 0.00000 0 9668538.918 -8411523.510 22062570.654 10 0 60240 900.00000 0 12273021.201 -7919594.730 20918076.575 10 0 60240 1800.00000 0 14742398.876 -7641292.343 19367566.379 10 0 60240 2700.00000 0 17012325.078 -7558804.546 17441046.131 10 0 60240 3600.00000 0 19024511.793 -7643295.136 15175833.553 10 0 60240 4500.00000 0 20728975.204 -7856282.601 12615842.282 10 0 60240 5400.00000 0 22085948.938 -8151439.147 9810736.321 10 0 60240 6300.00000 0 23067385.345 -8476733.930 6814970.331 10 0 60240 7200.00000 0 23657981.740 -8776829.911 3686733.961 10 0 60240 8100.00000 0 23855688.408 -8995632.764 486820.592 10 0 60240 9000.00000 0 23671676.685 -9078883.313 -2722557.405 10 0 60240 9900.00000 0 23129768.406 -8976682.972 -5878983.318 10 0 60240 10800.00000 0 22265350.829 -8645844.217 -8921056.309 10 0 60240 11700.00000 0 21123822.837 -8051965.269 -11789592.689 10 0 60240 12600.00000 0 19758638.253 -7171139.865 -14428783.974 10 0 60240 13500.00000 0 18229029.223 -5991228.416 -16787288.437 10 0 60240 14400.00000 0 16597506.022 -4512635.524 -18819234.344 10 0 60240 15300.00000 0 14927239.082 -2748559.781 -20485114.955 10 0 60240 16200.00000 0 13279433.713 -724704.162 -21752557.767 10 0 60240 17100.00000 0 11710808.045 1521541.887 -22596953.147 10 0 60240 18000.00000 0 10271280.071 3942415.269 -23001930.390 10 0 60240 18900.00000 0 9001960.518 6481532.818 -22959672.360 10 0 60240 19800.00000 0 7933535.135 9076013.078 -22471063.050 10 0 60240 20700.00000 0 7085103.399 11658878.260 -21545665.591 10 0 60240 21600.00000 0 6463521.265 14161636.795 -20201531.526 10 0 60240 22500.00000 0 6063274.356 16516939.345 -18464845.296 10 0 60240 23400.00000 0 5866885.602 18661198.056 -16369411.028 10 0 60240 24300.00000 0 5845838.936 20537060.375 -13955991.721 10 0 60240 25200.00000 0 5961978.910 22095634.867 -11271513.705 10 0 60240 26100.00000 0 6169326.170 23298376.693 -8368151.940 10 0 60240 27000.00000 0 6416231.216 24118554.725 -5302314.041 10 0 60240 27900.00000 0 6647774.711 24542239.744 -2133542.888 10 0 60240 28800.00000 0 6808312.275 24568773.234 1076640.603 10 0 60240 29700.00000 0 6844055.683 24210698.031 4265931.869 10 0 60240 30600.00000 0 6705580.989 23493154.673 7372450.894 10 0 60240 31500.00000 0 6350157.272 22452769.601 10335940.584 10 0 60240 32400.00000 0 5743797.372 21136082.541 13098932.112 10 0 60240 33300.00000 0 4862943.813 19597579.528 15607854.819 10 0 60240 34200.00000 0 3695718.444 17897414.290 17814069.481 10 0 60240 35100.00000 0 2242682.678 16098913.419 19674805.440 10 0 60240 36000.00000 0 517075.620 14265969.474 21153984.130 10 0 60240 36900.00000 0 -1455480.899 12460430.514 22222913.697 10 0 60240 37800.00000 0 -3637799.296 10739594.428 22860841.961 10 0 60240 38700.00000 0 -5982432.562 9153911.829 23055357.567 10 0 60240 39600.00000 0 -8433417.055 7744992.571 22802631.875 10 0 60240 40500.00000 0 -10928380.817 6543998.202 22107496.971 10 0 60240 41400.00000 0 -13400931.312 5570486.747 20983358.065 10 0 60240 42300.00000 0 -15783224.683 4831757.496 19451941.416 10 0 60240 43200.00000 0 -18008610.847 4322722.751 17542881.914 10 0 60240 44100.00000 0 -20014245.266 4026311.635 15293157.331 10 0 60240 45000.00000 0 -21743559.039 3914388.857 12746379.268 10 0 60240 45900.00000 0 -23148484.572 3949149.720 9951953.572 10 0 60240 46800.00000 0 -24191343.730 4084932.512 6964125.812 10 0 60240 47700.00000 0 -24846319.105 4270371.648 3840929.824 10 0 60240 48600.00000 0 -25100446.303 4450800.231 643059.629 10 0 60240 49500.00000 0 -24954085.048 4570799.836 -2567313.261 10 0 60240 50400.00000 0 -24420848.917 4576788.795 -5727753.593 10 0 60240 51300.00000 0 -23526996.354 4419538.353 -8776782.929 10 0 60240 52200.00000 0 -22310308.474 4056508.966 -11655082.437 10 0 60240 53100.00000 0 -20818500.977 3453906.538 -14306653.592 10 0 60240 54000.00000 0 -19107237.195 2588370.210 -16679913.486 10 0 60240 54900.00000 0 -17237826.249 1448219.070 -18728702.825 10 0 60240 55800.00000 0 -15274703.460 34203.864 -20413186.591 10 0 60240 56700.00000 0 -13282799.165 -1640269.121 -21700629.752 10 0 60240 57600.00000 0 -11324906.506 -3549452.543 -22566033.008 10 0 60240 58500.00000 0 -9459158.553 -5656098.542 -22992616.497 10 0 60240 59400.00000 0 -7736720.121 -7912790.977 -22972142.453 10 0 60240 60300.00000 0 -6199790.350 -10263714.292 -22505070.980 10 0 60240 61200.00000 0 -4879998.813 -12646785.672 -21600546.340 10 0 60240 62100.00000 0 -3797261.183 -14996061.974 -20276214.382 10 0 60240 63000.00000 0 -2959141.032 -17244321.430 -18557874.917 10 0 60240 63900.00000 0 -2360743.120 -19325712.760 -16478975.983 10 0 60240 64800.00000 0 -1985141.065 -21178361.533 -14079959.938 10 0 60240 65700.00000 0 -1804319.971 -22746825.343 -11407474.126 10 0 60240 66600.00000 0 -1780592.856 -23984295.592 -8513461.576 10 0 60240 67500.00000 0 -1868429.967 -24854454.329 -5454149.485 10 0 60240 68400.00000 0 -2016622.625 -25332908.942 -2288955.272 10 0 60240 69300.00000 0 -2170689.346 -25408145.213 920668.286 10 0 60240 70200.00000 0 -2275421.791 -25081959.447 4112426.226 10 0 60240 71100.00000 0 -2277462.411 -24369352.220 7224389.497 10 0 60240 72000.00000 0 -2127804.392 -23297888.816 10196194.394 10 0 60240 72900.00000 0 -1784108.001 -21906553.731 12970210.051 10 0 60240 73800.00000 0 -1212735.261 -20244147.624 15492651.553 10 0 60240 74700.00000 0 -390416.873 -18367294.052 17714617.371 10 0 60240 75600.00000 0 694519.239 -16338139.362 19593031.587 10 0 60240 76500.00000 0 2041409.960 -14221841.562 21091473.283 10 0 60240 77400.00000 0 3637041.404 -12083952.525 22180877.728 10 0 60240 78300.00000 0 5455965.753 -9987801.980 22840096.474 10 0 60240 79200.00000 0 7461338.616 -7991991.423 23056306.076 10 0 60240 80100.00000 0 9606243.347 -6148101.433 22825257.855 10 0 60240 81000.00000 0 11835448.697 -4498706.890 22151363.953 10 0 60240 81900.00000 0 14087528.154 -3075781.861 21047617.778 10 0 60240 82800.00000 0 16297254.134 -1899559.908 19535349.865 10 0 60240 83700.00000 0 18398168.602 -977896.668 17643823.102 10 0 60240 84600.00000 0 20325223.957 -306160.857 15409674.222 10 0 60240 85500.00000 0 22017384.665 132342.129 12876211.410 10 0 60241 0.00000 0 23420081.169 365432.108 10092580.972 10 0 60241 900.00000 0 24487414.006 430641.307 7112816.925 10 0 60241 1800.00000 0 25184013.809 373386.441 3994795.289 10 0 60241 2700.00000 0 25486480.927 244803.623 799108.228 10 0 60241 3600.00000 0 25384341.567 99337.897 -2412116.296 10 0 60241 4500.00000 0 24880480.472 -7809.726 -5576427.326 10 0 60241 5400.00000 0 23991031.134 -23268.713 -8632271.690 10 0 60241 6300.00000 0 22744727.700 101991.692 -11520198.188 10 0 60241 7200.00000 0 21181745.552 410337.803 -14184020.892 10 0 60241 8100.00000 0 19352079.258 935431.109 -16571918.149 10 0 60241 9000.00000 0 17313526.136 1700559.740 -18637445.299 10 0 60241 9900.00000 0 15129360.343 2717413.437 -20340441.000 10 0 60241 10800.00000 0 12865795.227 3985354.848 -21647809.391 10 0 60241 11700.00000 0 10589340.423 5491218.837 -22534162.955 10 0 60241 12600.00000 0 8364164.321 7209649.145 -22982313.854 10 0 60241 13500.00000 0 6249571.983 9103959.032 -22983604.561 10 0 60241 14400.00000 0 4297703.398 11127480.514 -22538071.831 10 0 60241 15300.00000 0 2551547.488 13225346.216 -21654441.212 10 0 60241 16200.00000 0 1043353.775 15336629.797 -20349952.612 10 0 60241 17100.00000 0 -206493.194 17396755.843 -18650020.543 10 0 60241 18000.00000 0 -1190091.091 19340078.784 -16587735.852 10 0 60241 18900.00000 0 -1912104.474 21102523.334 -14203218.730 10 0 60241 19800.00000 0 -2389315.021 22624176.281 -11542835.611 10 0 60241 20700.00000 0 -2649657.865 23851721.410 -8658295.284 10 0 60241 21600.00000 0 -2730786.137 24740615.898 -5605641.887 10 0 60241 22500.00000 0 -2678225.598 25256917.313 -2444164.454 10 0 60241 23400.00000 0 -2543198.401 25378684.929 764755.517 10 0 60241 24300.00000 0 -2380208.855 25096897.032 3958835.928 10 0 60241 25200.00000 0 -2244493.958 24415846.104 7076102.009 10 0 60241 26100.00000 0 -2189446.956 23352995.711 10056086.708 10 0 60241 27000.00000 0 -2264123.176 21938305.453 12841000.266 10 0 60241 27900.00000 0 -2510933.678 20213052.441 15376846.449 10 0 60241 28800.00000 0 -2963624.268 18228198.743 17614464.116 10 0 60241 29700.00000 0 -3645625.229 16042372.891 19510474.462 10 0 60241 30600.00000 0 -4568841.589 13719549.408 21028116.244 10 0 60241 31500.00000 0 -5732935.279 11326522.560 22137953.486 10 0 60241 32400.00000 0 -7125130.035 8930278.817 22818442.658 10 0 60241 33300.00000 0 -8720548.260 6595376.424 23056348.926 10 0 60241 34200.00000 0 -10483066.961 4381440.103 22847003.739 10 0 60241 35100.00000 0 -12366658.410 2340873.960 22194398.896 10 0 60241 36000.00000 0 -14317161.064 516886.713 21111115.028 10 0 60241 36900.00000 0 -16274408.288 -1058089.510 19618085.382 10 0 60241 37800.00000 0 -18174627.361 -2363521.751 17744198.740 10 0 60241 38700.00000 0 -19953009.737 -3391394.036 15525748.196 10 0 60241 39600.00000 0 -21546345.872 -4146295.105 13005735.528 10 0 60241 40500.00000 0 -22895614.831 -4644972.885 10233043.676 10 0 60241 41400.00000 0 -23948420.287 -4915374.775 7261492.647 10 0 60241 42300.00000 0 -24661170.383 -4995214.517 4148796.636 10 0 60241 43200.00000 0 -25000909.262 -4930126.533 955442.444 10 0 60241 44100.00000 0 -24946722.563 -4771486.218 -2256488.899 10 0 60241 45000.00000 0 -24490656.709 -4573989.085 -5424533.923 10 0 60241 45900.00000 0 -23638112.486 -4393092.104 -8487067.697 10 0 60241 46800.00000 0 -22407695.587 -4282426.540 -11384509.387 10 0 60241 47700.00000 0 -20830529.715 -4291292.990 -14060488.109 10 0 60241 48600.00000 0 -18949060.719 -4462345.806 -16462945.565 10 0 60241 49500.00000 0 -16815401.796 -4829566.007 -18545153.439 10 0 60241 50400.00000 0 -14489289.152 -5416609.469 -20266625.308 10 0 60241 51300.00000 0 -12035733.815 -6235601.070 -21593905.195 10 0 60241 52200.00000 0 -9522467.930 -7286426.561 -22501217.522 10 0 60241 53100.00000 0 -7017292.258 -8556552.679 -22970966.059 10 0 60241 54000.00000 0 -4585435.470 -10021383.745 -22994072.579 10 0 60241 54900.00000 0 -2287034.977 -11645140.289 -22570149.068 10 0 60241 55800.00000 0 -174843.771 -13382223.298 -21707500.562 10 0 60241 56700.00000 0 1707742.047 -15179007.246 -20422958.925 10 0 60241 57600.00000 0 3328253.934 -16975987.125 -18741551.055 10 0 60241 58500.00000 0 4666255.576 -18710189.738 -16696008.151 10 0 60241 59400.00000 0 5713936.996 -20317748.453 -14326125.706 10 0 60241 60300.00000 0 6476174.914 -21736533.695 -11677986.682 10 0 60241 61200.00000 0 6970058.602 -22908729.033 -8803063.088 10 0 60241 62100.00000 0 7223902.805 -23783244.926 -5757213.513 10 0 60241 63000.00000 0 7275790.905 -24317869.016 -2599596.194 10 0 60241 63900.00000 0 7171711.090 -24481062.813 608480.963 10 0 60241 64800.00000 0 6963365.354 -24253329.526 3804750.925 10 0 60241 65700.00000 0 6705744.787 -23628095.782 6927195.274 10 0 60241 66600.00000 0 6454574.256 -22612070.392 9915245.552 10 0 60241 67500.00000 0 6263734.862 -21225065.237 12710954.878 10 0 60241 68400.00000 0 6182773.296 -19499285.797 15260117.303 10 0 60241 69300.00000 0 6254603.300 -17478120.953 17513313.459 10 0 60241 70200.00000 0 6513496.211 -15214482.360 19426862.808 10 0 60241 71100.00000 0 6983445.316 -12768762.255 20963664.651 10 0 60241 72000.00000 0 7676972.994 -10206494.176 22093912.338 10 0 60241 72900.00000 0 8594431.170 -7595813.121 22795667.514 10 0 60241 73800.00000 0 9723825.045 -5004819.737 23055283.896 10 0 60241 74700.00000 0 11041168.409 -2498956.985 22867672.712 10 0 60241 75600.00000 0 12511356.731 -138507.088 22236404.793 10 0 60241 76500.00000 0 14089522.835 2023688.408 21173647.129 10 0 60241 77400.00000 0 15722819.778 3944191.708 19699934.624 10 0 60241 78300.00000 0 17352557.678 5590534.247 17843780.708 10 0 60241 79200.00000 0 18916606.258 6942320.122 15641133.438 10 0 60241 80100.00000 0 20351963.344 7991822.038 13134686.619 10 0 60241 81000.00000 0 21597382.241 8744045.361 10373058.368 10 0 60241 81900.00000 0 22595947.936 9216258.043 7409852.274 10 0 60241 82800.00000 0 23297493.665 9437006.580 4302618.864 10 0 60241 83700.00000 0 23660755.692 9444659.868 1111737.360 10 0 60241 84600.00000 0 23655174.688 9285542.909 -2100760.497 10 0 60241 85500.00000 0 23262266.824 9011739.871 -5272401.159 10 0 60242 0.00000 0 22476505.947 8678660.249 -8341490.086 10 0 60242 900.00000 0 21305677.996 8342471.832 -11248319.718 10 0 60242 1800.00000 0 19770692.996 8057510.610 -13936336.145 10 0 60242 2700.00000 0 17904860.366 7873777.679 -16353246.455 10 0 60242 3600.00000 0 15752658.340 7834630.504 -18452040.501 10 0 60242 4500.00000 0 13368048.448 7974766.950 -20191908.391 10 0 60242 5400.00000 0 10812405.506 8318588.053 -21539035.453 10 0 60242 6300.00000 0 8152149.531 8879009.337 -22467259.267 10 0 60242 7200.00000 0 5456178.420 9656771.305 -22958576.221 10 0 60242 8100.00000 0 2793208.284 10640278.596 -23003488.152 10 0 60242 9000.00000 0 229131.938 11805974.843 -22601182.746 10 0 60242 9900.00000 0 -2175494.918 13119237.777 -21759544.639 10 0 60242 10800.00000 0 -4367735.900 14535757.104 -20494997.366 10 0 60242 11700.00000 0 -6304230.505 16003337.491 -18832179.499 10 0 60242 12600.00000 0 -7952744.636 17464051.052 -16803461.451 10 0 60242 13500.00000 0 -9293251.901 18856649.061 -14448312.467 10 0 60242 14400.00000 0 -10318502.071 20119131.675 -11812530.124 10 0 60242 15300.00000 0 -11034054.595 21191367.763 -8947347.421 10 0 60242 16200.00000 0 -11457777.518 22017654.736 -5908434.904 10 0 60242 17100.00000 0 -11618834.496 22549110.838 -2754817.325 10 0 60242 18000.00000 0 -11556204.101 22745799.242 452273.844 10 0 60242 18900.00000 0 -11316795.134 22578494.697 3650589.564 10 0 60242 19800.00000 0 -10953238.571 22030018.418 6778070.743 10 0 60242 20700.00000 0 -10521450.161 21096085.123 9774050.469 10 0 60242 21600.00000 0 -10078067.148 19785626.584 12580427.639 10 0 60242 22500.00000 0 -9677867.632 18120577.967 15142789.354 10 0 60242 23400.00000 0 -9371281.527 16135135.650 17411460.623 10 0 60242 24300.00000 0 -9202098.010 13874517.148 19342461.539 10 0 60242 25200.00000 0 -9205465.906 11393274.282 20898354.038 10 0 60242 26100.00000 0 -9406271.036 8753229.181 22048962.545 10 0 60242 27000.00000 0 -9817958.759 6021118.010 22771955.243 10 0 60242 27900.00000 0 -10441851.365 3266039.287 23053275.320 10 0 60242 28800.00000 0 -11266989.406 556811.558 22887414.211 10 0 60242 29700.00000 0 -12270504.311 -2040651.127 22277521.680 10 0 60242 30600.00000 0 -13418507.635 -4465838.242 21235350.424 10 0 60242 31500.00000 0 -14667460.756 -6665913.639 19781035.778 10 0 60242 32400.00000 0 -15965968.759 -8597664.864 17942714.069 10 0 60242 33300.00000 0 -17256924.451 -10229050.634 15755986.048 10 0 60242 34200.00000 0 -18479913.398 -11540282.601 13263234.840 10 0 60242 35100.00000 0 -19573779.720 -12524396.757 10512810.680 10 0 60242 36000.00000 0 -20479245.082 -13187291.013 7558097.430 10 0 60242 36900.00000 0 -21141470.564 -13547227.657 4456478.487 10 0 60242 37800.00000 0 -21512453.119 -13633822.060 1268221.949 10 0 60242 38700.00000 0 -21553154.700 -13486560.636 -1944693.253 10 0 60242 39600.00000 0 -21235273.330 -13152911.168 -5119786.935 10 0 60242 40500.00000 0 -20542580.160 -12686106.041 -8195298.805 10 0 60242 41400.00000 0 -19471764.958 -12142692.904 -11111396.616 10 0 60242 42300.00000 0 -18032753.196 -11579957.275 -13811346.878 10 0 60242 43200.00000 0 -16248480.260 -11053327.035 -16242624.657 10 0 60242 44100.00000 0 -14154131.436 -10613869.510 -18357940.155 10 0 60242 45000.00000 0 -11795878.868 -10305987.737 -20116161.717 10 0 60242 45900.00000 0 -9229167.919 -10165413.922 -21483117.105 10 0 60242 46800.00000 0 -6516624.219 -10217585.256 -22432257.557 10 0 60242 47700.00000 0 -3725668.542 -10476470.932 -22945171.926 10 0 60242 48600.00000 0 -925938.698 -10943899.946 -23011941.320 10 0 60242 49500.00000 0 1813374.537 -11609418.051 -22631327.762 10 0 60242 50400.00000 0 4426166.974 -12450679.810 -21810793.640 10 0 60242 51300.00000 0 6851926.862 -13434359.197 -20566351.919 10 0 60242 52200.00000 0 9038003.574 -14517540.320 -18922250.298 10 0 60242 53100.00000 0 10941545.662 -15649529.651 -16910495.639 10 0 60242 54000.00000 0 12531028.729 -16774013.456 -14570228.006 10 0 60242 54900.00000 0 13787310.793 -17831469.519 -11946956.539 10 0 60242 55800.00000 0 14704172.511 -18761731.578 -9091672.105 10 0 60242 56700.00000 0 15288321.319 -19506598.398 -6059854.058 10 0 60242 57600.00000 0 15558860.917 -20012377.509 -2910390.545 10 0 60242 58500.00000 0 15546249.969 -20232256.367 295566.425 10 0 60242 59400.00000 0 15290795.274 -20128400.943 3495788.677 10 0 60242 60300.00000 0 14840744.106 -19673693.288 6628179.074 10 0 60242 61200.00000 0 14250057.123 -18853034.795 9631974.593 10 0 60242 62100.00000 0 13575956.467 -17664160.159 12448921.894 10 0 60242 63000.00000 0 12876352.863 -16117927.589 15024402.749 10 0 60242 63900.00000 0 12207260.297 -14238072.675 17308487.753 10 0 60242 64800.00000 0 11620307.151 -12060435.692 19256898.440 10 0 60242 65700.00000 0 11160448.265 -9631693.845 20831859.801 10 0 60242 66600.00000 0 10863973.891 -7007650.473 22002827.369 10 0 60242 67500.00000 0 10756898.872 -4251151.325 22747075.544 10 0 60242 68400.00000 0 10853799.518 -1429713.326 23050136.333 10 0 60242 69300.00000 0 11157146.998 1387036.996 22906080.433 10 0 60242 70200.00000 0 11657165.412 4130010.452 22317635.341 10 0 60242 71100.00000 0 12332221.032 6733279.021 21296138.050 10 0 60242 72000.00000 0 13149727.046 9136568.822 19861322.751 10 0 60242 72900.00000 0 14067526.733 11287519.773 18040946.937 10 0 60242 73800.00000 0 15035697.870 13143618.811 15870262.220 10 0 60242 74700.00000 0 15998703.423 14673726.807 13391339.112 10 0 60242 75600.00000 0 16897798.704 15859135.949 10652257.932 10 0 60242 76500.00000 0 17673594.019 16694113.697 7706180.671 10 0 60242 77400.00000 0 18268664.957 17185910.847 4610321.369 10 0 60242 78300.00000 0 18630099.763 17354233.537 1424834.694 10 0 60242 79200.00000 0 18711875.597 17230201.718 -1788355.582 10 0 60242 80100.00000 0 18476962.406 16854838.465 -4966764.979 10 0 60242 81000.00000 0 17899064.343 16277154.396 -8048569.463 10 0 60242 81900.00000 0 16963923.898 15551908.783 -10973814.771 10 0 60242 82800.00000 0 15670132.366 14737142.743 -13685589.525 10 0 60242 83700.00000 0 14029411.202 13891589.598 -16131138.499 10 0 60242 84600.00000 0 12066351.264 13072072.617 -18262893.766 10 0 60242 85500.00000 0 9817619.898 12331000.830 -20039403.202 10 0 60243 0.00000 0 7330668.597 11714069.189 -21426137.989 10 0 60243 900.00000 0 4661993.246 11258260.194 -22396164.158 10 0 60243 1800.00000 0 1875022.581 10990232.166 -22930663.561 10 0 60243 2700.00000 0 -962281.930 10925160.919 -23019297.008 10 0 60243 3600.00000 0 -3780011.940 11066084.238 -22660400.993 10 0 60243 4500.00000 0 -6508977.871 11403776.055 -21861015.427 10 0 60243 5400.00000 0 -9083343.799 11917155.247 -20636742.076 10 0 60243 6300.00000 0 -11443122.652 12574211.420 -19011436.722 10 0 60243 7200.00000 0 -13536428.658 13333408.258 -17016741.212 10 0 60243 8100.00000 0 -15321394.237 14145504.930 -14691464.612 10 0 60243 9000.00000 0 -16767672.575 14955718.520 -12080825.517 10 0 60243 9900.00000 0 -17857464.415 15706135.970 -9235570.336 10 0 60243 10800.00000 0 -18586027.527 16338273.628 -6210984.769 10 0 60243 11700.00000 0 -18961649.032 16795676.167 -3065817.813 10 0 60243 12600.00000 0 -19005083.147 17026445.056 138860.559 10 0 60243 13500.00000 0 -18748479.451 16985589.685 3340845.618 10 0 60243 14400.00000 0 -18233847.976 16637101.813 6478004.764 10 0 60243 15300.00000 0 -17511126.822 15955665.691 9489481.410 10 0 60243 16200.00000 0 -16635934.491 14927931.564 12316872.494 10 0 60243 17100.00000 0 -15667102.116 13553298.652 14905356.882 10 0 60243 18000.00000 0 -14664089.715 11844174.266 17204753.064 10 0 60243 18900.00000 0 -13684395.159 9825697.564 19170486.149 10 0 60243 19800.00000 0 -12781064.499 7534938.664 20764446.073 10 0 60243 20700.00000 0 -12000407.835 5019605.599 21955721.086 10 0 60243 21600.00000 0 -11380016.080 2336311.764 22721193.062 10 0 60243 22500.00000 0 -10947161.342 -451525.370 23045983.702 10 0 60243 23400.00000 0 -10717647.590 -3276068.372 22923743.414 10 0 60243 24300.00000 0 -10695159.594 -6067629.312 22356777.436 10 0 60243 25200.00000 0 -10871137.438 -8757319.322 21356006.585 10 0 60243 26100.00000 0 -11225182.131 -11279669.600 19940762.964 10 0 60243 27000.00000 0 -11725975.722 -13575116.116 18138423.833 10 0 60243 27900.00000 0 -12332677.882 -15592245.644 15983889.812 10 0 60243 28800.00000 0 -12996740.833 -17289710.250 13518916.556 10 0 60243 29700.00000 0 -13664066.762 -18637730.816 10791311.876 10 0 60243 30600.00000 0 -14277417.211 -19619127.066 7854013.046 10 0 60243 31500.00000 0 -14778972.872 -20229831.064 4764061.686 10 0 60243 32400.00000 0 -15112935.431 -20478862.704 1581495.837 10 0 60243 33300.00000 0 -15228061.038 -20387768.375 -1631819.153 10 0 60243 34200.00000 0 -15080017.243 -19989546.564 -4813397.806 10 0 60243 35100.00000 0 -14633462.697 -19327106.083 -7901355.626 10 0 60243 36000.00000 0 -13863760.440 -18451322.520 -10835619.567 10 0 60243 36900.00000 0 -12758250.921 -17418775.490 -13559103.450 10 0 60243 37800.00000 0 -11317029.635 -16289262.941 -16018824.648 10 0 60243 38700.00000 0 -9553195.295 -15123198.157 -18166939.680 10 0 60243 39600.00000 0 -7492556.886 -13978999.928 -19961678.111 10 0 60243 40500.00000 0 -5172810.888 -12910586.456 -21368156.393 10 0 60243 41400.00000 0 -2642222.226 -11965078.852 -22359055.898 10 0 60243 42300.00000 0 42136.563 -11180811.033 -22915152.167 10 0 60243 43200.00000 0 2816515.043 -10585729.558 -23025685.477 10 0 60243 44100.00000 0 5612895.225 -10196250.293 -22688565.952 10 0 60243 45000.00000 0 8361582.608 -10016619.416 -21910409.652 10 0 60243 45900.00000 0 10993870.621 -10038804.883 -20706405.305 10 0 60243 46800.00000 0 13444668.143 -10242922.145 -19100014.546 10 0 60243 47700.00000 0 15654981.366 -10598175.412 -17122511.641 10 0 60243 48600.00000 0 17574147.435 -11064274.019 -14812371.796 10 0 60243 49500.00000 0 19161727.638 -11593263.588 -12214519.936 10 0 60243 50400.00000 0 20388982.120 -12131694.097 -9379454.664 10 0 60243 51300.00000 0 21239865.665 -12623032.872 -6362264.511 10 0 60243 52200.00000 0 21711504.097 -13010220.221 -3221555.717 10 0 60243 53100.00000 0 21814132.595 -13238259.370 -18312.626 10 0 60243 54000.00000 0 21570499.802 -13256731.027 3185286.951 10 0 60243 54900.00000 0 21014763.982 -13022126.130 6327078.164 10 0 60243 55800.00000 0 20190928.656 -12499898.022 9346113.738 10 0 60243 56700.00000 0 19150884.398 -11666147.261 12183843.310 10 0 60243 57600.00000 0 17952139.705 -10508867.715 14785244.781 10 0 60243 58500.00000 0 16655336.685 -9028701.067 17099885.968 10 0 60243 59400.00000 0 15321655.934 -7239167.426 19082896.487 10 0 60243 60300.00000 0 14010219.318 -5166361.534 20695831.689 10 0 60243 61200.00000 0 12775599.139 -2848126.265 21907412.577 10 0 60243 62100.00000 0 11665537.465 -332736.654 22694128.150 10 0 60243 63000.00000 0 10718970.451 2322852.123 23040689.101 10 0 60243 63900.00000 0 9964439.714 5055121.430 22940324.533 10 0 60243 64800.00000 0 9418956.699 7796384.126 22394916.116 10 0 60243 65700.00000 0 9087367.167 10477359.883 21414966.943 10 0 60243 66600.00000 0 8962242.273 13029825.265 20019405.256 10 0 60243 67500.00000 0 9024300.790 15389229.727 18235226.117 10 0 60243 68400.00000 0 9243344.962 17497169.720 16096977.043 10 0 60243 69300.00000 0 9579670.960 19303618.540 13646096.575 10 0 60243 70200.00000 0 9985894.871 20768819.328 10930117.639 10 0 60243 71100.00000 0 10409117.530 21864762.385 8001750.302 10 0 60243 72000.00000 0 10793336.879 22576184.883 4917861.191 10 0 60243 72900.00000 0 11082005.737 22901050.971 1738369.098 10 0 60243 73800.00000 0 11220626.334 22850491.981 -1474921.700 10 0 60243 74700.00000 0 11159270.994 22448209.167 -4659527.331 10 0 60243 75600.00000 0 10854921.304 21729364.324 -7753505.299 10 0 60243 76500.00000 0 10273525.511 20739005.244 -10696666.059 10 0 60243 77400.00000 0 9391685.741 19530092.807 -13431750.677 10 0 60243 78300.00000 0 8197902.387 18161213.481 -15905550.898 10 0 60243 79200.00000 0 6693321.653 16694074.167 -18069949.183 10 0 60243 80100.00000 0 4891953.504 15190885.586 -19882858.011 10 0 60243 81000.00000 0 2820349.660 13711744.814 -21309039.961 10 0 60243 81900.00000 0 516754.056 12312127.362 -22320792.710 10 0 60243 82800.00000 0 -1970239.500 11040594.294 -22898485.792 10 0 60243 83700.00000 0 -4583467.113 9936810.486 -23030939.105 10 0 60243 84600.00000 0 -7259338.416 9029956.726 -22715636.215 10 0 60243 85500.00000 0 -9930255.131 8337601.625 -21958768.753 99